| time (UTC) | temp C | wind direction | speed KPH | gust KPH | rain 1hr cm | rain 24hr cm | rain mn cm | humidity % | barometer mb |
| 20260906195208 | 36 | 146 | 8.0 | 24.1 | 0.00 | 0.00 | 0.00 | 35 | 1014.0 |
| 20260906194708 | 35 | 218 | 8.0 | 19.3 | 0.00 | 0.00 | 0.00 | 36 | 1014.1 |
| 20260906193707 | 35 | 152 | 8.0 | 19.3 | 0.00 | 0.00 | 0.00 | 36 | 1014.2 |
| 20260906193208 | 35 | 200 | 4.8 | 19.3 | 0.00 | 0.00 | 0.00 | 37 | 1014.2 |
| 20260906192708 | 36 | 225 | 11.3 | 19.3 | 0.00 | 0.00 | 0.00 | 35 | 1014.3 |
| 20260906192208 | 35 | 156 | 4.8 | 19.3 | 0.00 | 0.00 | 0.00 | 36 | 1014.3 |
| 20260906191707 | 36 | 155 | 9.7 | 19.3 | 0.00 | 0.00 | 0.00 | 35 | 1014.5 |
| 20260906191207 | 35 | 117 | 4.8 | 19.3 | 0.00 | 0.00 | 0.00 | 37 | 1014.6 |
| 20260906190708 | 35 | 263 | 8.0 | 22.5 | 0.00 | 0.00 | 0.00 | 37 | 1014.7 |
| 20260906190208 | 36 | 158 | 11.3 | 22.5 | 0.00 | 0.00 | 0.00 | 35 | 1014.7 |
| 20260906185708 | 36 | 121 | 4.8 | 16.1 | 0.00 | 0.00 | 0.00 | 34 | 1014.8 |
| 20260906185208 | 36 | 151 | 9.7 | 16.1 | 0.00 | 0.00 | 0.00 | 35 | 1014.7 |
| 20260906184708 | 36 | 151 | 8.0 | 16.1 | 0.00 | 0.00 | 0.00 | 36 | 1014.9 |
| 20260906184207 | 36 | 224 | 6.4 | 12.9 | 0.00 | 0.00 | 0.00 | 36 | 1014.9 |
| 20260906183708 | 36 | 107 | 3.2 | 24.1 | 0.00 | 0.00 | 0.00 | 37 | 1015.0 |
| 20260906182707 | 36 | 183 | 4.8 | 16.1 | 0.00 | 0.00 | 0.00 | 39 | 1015.2 |
| 20260906182208 | 35 | 163 | 4.8 | 19.3 | 0.00 | 0.00 | 0.00 | 39 | 1015.2 |
| 20260906181708 | 35 | 156 | 8.0 | 19.3 | 0.00 | 0.00 | 0.00 | 38 | 1015.4 |
| 20260906181207 | 36 | 202 | 4.8 | 11.3 | 0.00 | 0.00 | 0.00 | 38 | 1015.4 |
| 20260906180708 | 35 | 217 | 4.8 | 19.3 | 0.00 | 0.00 | 0.00 | 37 | 1015.4 |
| 20260906180207 | 35 | 154 | 4.8 | 19.3 | 0.00 | 0.00 | 0.00 | 36 | 1015.6 |
| 20260906175715 | 36 | 155 | 9.7 | 25.7 | 0.00 | 0.00 | 0.00 | 35 | 1015.7 |
| 20260906175208 | 36 | 138 | 4.8 | 25.7 | 0.00 | 0.00 | 0.00 | 36 | 1015.9 |
| 20260906174708 | 36 | 104 | 9.7 | 25.7 | 0.00 | 0.00 | 0.00 | 35 | 1015.9 |
| 20260906174207 | 35 | 122 | 8.0 | 24.1 | 0.00 | 0.00 | 0.00 | 36 | 1016.0 |
| 20260906173208 | 36 | 149 | 11.3 | 24.1 | 0.00 | 0.00 | 0.00 | 36 | 1016.3 |
| 20260906172707 | 36 | 281 | 4.8 | 25.7 | 0.00 | 0.00 | 0.00 | 40 | 1016.4 |
| 20260906172208 | 35 | 216 | 11.3 | 25.7 | 0.00 | 0.00 | 0.00 | 38 | 1016.5 |
| 20260906171708 | 36 | 142 | 6.4 | 22.5 | 0.00 | 0.00 | 0.00 | 37 | 1016.4 |
| 20260906171208 | 37 | 159 | 4.8 | 16.1 | 0.00 | 0.00 | 0.00 | 37 | 1016.5 |
| 20260906170708 | 36 | 223 | 3.2 | 14.5 | 0.00 | 0.00 | 0.00 | 44 | 1016.6 |
| 20260906170207 | 36 | 133 | 4.8 | 16.1 | 0.00 | 0.00 | 0.00 | 36 | 1016.7 |
| 20260906165708 | 36 | 314 | 4.8 | 22.5 | 0.00 | 0.00 | 0.00 | 39 | 1016.6 |
| 20260906165208 | 35 | 279 | 11.3 | 22.5 | 0.00 | 0.00 | 0.00 | 39 | 1016.7 |
| 20260906164708 | 35 | 154 | 4.8 | 12.9 | 0.00 | 0.00 | 0.00 | 39 | 1016.8 |
| 20260906164208 | 35 | 233 | 3.2 | 12.9 | 0.00 | 0.00 | 0.00 | 40 | 1016.8 |
| 20260906163708 | 35 | 227 | 4.8 | 11.3 | 0.00 | 0.00 | 0.00 | 38 | 1016.9 |
| 20260906163208 | 36 | 321 | 4.8 | 11.3 | 0.00 | 0.00 | 0.00 | 41 | 1016.9 |
| 20260906162708 | 36 | 190 | 4.8 | 9.7 | 0.00 | 0.00 | 0.00 | 37 | 1017.0 |
| 20260906162207 | 36 | 255 | 4.8 | 9.7 | 0.00 | 0.00 | 0.00 | 41 | 1017.1 |
| 20260906161707 | 35 | 230 | 4.8 | 14.5 | 0.00 | 0.00 | 0.00 | 41 | 1017.1 |
| 20260906161208 | 35 | 218 | 4.8 | 19.3 | 0.00 | 0.00 | 0.00 | 41 | 1017.0 |
| 20260906160208 | 35 | 278 | 11.3 | 19.3 | 0.00 | 0.00 | 0.00 | 39 | 1016.8 |
| 20260906155707 | 35 | 282 | 9.7 | 19.3 | 0.00 | 0.00 | 0.00 | 41 | 1016.9 |
| 20260906154708 | 34 | 274 | 12.9 | 22.5 | 0.00 | 0.00 | 0.00 | 41 | 1016.7 |
| 20260906154208 | 34 | 284 | 12.9 | 22.5 | 0.00 | 0.00 | 0.00 | 41 | 1016.7 |
| 20260906153208 | 33 | 266 | 11.3 | 22.5 | 0.00 | 0.00 | 0.00 | 42 | 1016.6 |
| 20260906152708 | 33 | 263 | 8.0 | 22.5 | 0.00 | 0.00 | 0.00 | 44 | 1016.4 |
| 20260906152208 | 33 | 262 | 9.7 | 24.1 | 0.00 | 0.00 | 0.00 | 43 | 1016.5 |
| 20260906151208 | 33 | 261 | 9.7 | 19.3 | 0.00 | 0.00 | 0.00 | 44 | 1016.7 |
| 20260906150708 | 33 | 250 | 9.7 | 19.3 | 0.00 | 0.00 | 0.00 | 46 | 1016.7 |
| 20260906150207 | 33 | 269 | 14.5 | 19.3 | 0.00 | 0.00 | 0.00 | 44 | 1016.6 |
| 20260906145708 | 33 | 284 | 14.5 | 19.3 | 0.00 | 0.00 | 0.00 | 44 | 1016.6 |
| 20260906145208 | 32 | 259 | 4.8 | 22.5 | 0.00 | 0.00 | 0.00 | 45 | 1016.6 |
| 20260906144707 | 32 | 279 | 12.9 | 22.5 | 0.00 | 0.00 | 0.00 | 45 | 1016.5 |
| 20260906143707 | 32 | 183 | 3.2 | 9.7 | 0.00 | 0.00 | 0.00 | 47 | 1016.5 |
| 20260906143208 | 31 | 150 | 3.2 | 9.7 | 0.00 | 0.00 | 0.00 | 47 | 1016.5 |
| 20260906142708 | 31 | 144 | 3.2 | 4.8 | 0.00 | 0.00 | 0.00 | 49 | 1016.5 |
| 20260906142207 | 31 | 139 | 3.2 | 4.8 | 0.00 | 0.00 | 0.00 | 52 | 1016.5 |
| 20260906141707 | 30 | 139 | 3.2 | 9.7 | 0.00 | 0.00 | 0.00 | 52 | 1016.5 |
| 20260906141207 | 30 | 139 | 3.2 | 9.7 | 0.00 | 0.00 | 0.00 | 52 | 1016.5 |
| 20260906140708 | 30 | 138 | 3.2 | 4.8 | 0.00 | 0.00 | 0.00 | 53 | 1016.4 |
| 20260906140207 | 30 | 137 | 1.6 | 3.2 | 0.00 | 0.00 | 0.00 | 55 | 1016.4 |
| 20260906135707 | 29 | 137 | 1.6 | 3.2 | 0.00 | 0.00 | 0.00 | 55 | 1016.5 |
| 20260906135208 | 28 | 137 | 1.6 | 3.2 | 0.00 | 0.00 | 0.00 | 55 | 1016.4 |
| 20260906133708 | 27 | 136 | 1.6 | 3.2 | 0.00 | 0.00 | 0.00 | 61 | 1016.4 |
| 20260906133207 | 26 | 136 | 1.6 | 3.2 | 0.00 | 0.00 | 0.00 | 62 | 1016.2 |
| 20260906132707 | 26 | 136 | 1.6 | 4.8 | 0.00 | 0.00 | 0.00 | 63 | 1016.2 |
| 20260906132208 | 26 | 136 | 1.6 | 4.8 | 0.00 | 0.00 | 0.00 | 64 | 1016.0 |
| 20260906131708 | 25 | 136 | 1.6 | 4.8 | 0.00 | 0.00 | 0.00 | 65 | 1016.0 |
| 20260906131208 | 25 | 136 | 1.6 | 4.8 | 0.00 | 0.00 | 0.00 | 65 | 1016.0 |
| 20260906130207 | 25 | 136 | 3.2 | 4.8 | 0.00 | 0.00 | 0.00 | 66 | 1015.8 |
| 20260906125708 | 25 | 136 | 1.6 | 4.8 | 0.00 | 0.00 | 0.00 | 66 | 1015.7 |
| 20260906125208 | 25 | 136 | 3.2 | 4.8 | 0.00 | 0.00 | 0.00 | 68 | 1015.6 |
| 20260906124708 | 24 | 136 | 1.6 | 4.8 | 0.00 | 0.00 | 0.00 | 68 | 1015.5 |
| 20260906124207 | 25 | 136 | 1.6 | 4.8 | 0.00 | 0.00 | 0.00 | 66 | 1015.5 |
| 20260906123707 | 25 | 136 | 3.2 | 4.8 | 0.00 | 0.00 | 0.00 | 66 | 1015.4 |
| 20260906123208 | 25 | 136 | 3.2 | 4.8 | 0.00 | 0.00 | 0.00 | 68 | 1015.3 |
| 20260906122708 | 24 | 136 | 3.2 | 4.8 | 0.00 | 0.00 | 0.00 | 68 | 1015.3 |
| 20260906122207 | 24 | 136 | 1.6 | 9.7 | 0.00 | 0.00 | 0.00 | 66 | 1015.3 |
| 20260906121707 | 25 | 136 | 3.2 | 9.7 | 0.00 | 0.00 | 0.00 | 66 | 1015.3 |
| 20260906121208 | 25 | 138 | 3.2 | 9.7 | 0.00 | 0.00 | 0.00 | 66 | 1015.4 |
| 20260906120707 | 25 | 121 | 3.2 | 4.8 | 0.00 | 0.00 | 0.00 | 66 | 1015.3 |
| 20260906120207 | 25 | 121 | 4.8 | 4.8 | 0.00 | 0.00 | 0.00 | 66 | 1015.2 |
| 20260906115707 | 25 | 120 | 3.2 | 4.8 | 0.00 | 0.00 | 0.00 | 66 | 1015.1 |
| 20260906115207 | 25 | 119 | 3.2 | 4.8 | 0.00 | 0.00 | 0.00 | 66 | 1015.1 |
| 20260906114707 | 25 | 118 | 3.2 | 9.7 | 0.00 | 0.00 | 0.00 | 66 | 1015.0 |
| 20260906113708 | 24 | 115 | 1.6 | 3.2 | 0.00 | 0.00 | 0.00 | 68 | 1014.9 |
| 20260906113207 | 24 | 115 | 1.6 | 3.2 | 0.00 | 0.00 | 0.00 | 69 | 1014.8 |
| 20260906112707 | 23 | 115 | 3.2 | 3.2 | 0.00 | 0.00 | 0.00 | 70 | 1014.8 |
| 20260906112207 | 23 | 115 | 1.6 | 3.2 | 0.00 | 0.00 | 0.00 | 70 | 1014.7 |
| 20260906111707 | 23 | 115 | 1.6 | 3.2 | 0.00 | 0.00 | 0.00 | 70 | 1014.7 |
| 20260906111208 | 24 | 115 | 1.6 | 3.2 | 0.00 | 0.00 | 0.00 | 70 | 1014.7 |
| 20260906110707 | 24 | 115 | 1.6 | 3.2 | 0.00 | 0.00 | 0.00 | 69 | 1014.7 |
| 20260906105708 | 25 | 115 | 1.6 | 3.2 | 0.00 | 0.00 | 0.00 | 66 | 1014.6 |
| 20260906105207 | 25 | 115 | 1.6 | 3.2 | 0.00 | 0.00 | 0.00 | 65 | 1014.6 |
| 20260906104708 | 25 | 115 | 1.6 | 3.2 | 0.00 | 0.00 | 0.00 | 64 | 1014.5 |
| 20260906104208 | 25 | 115 | 1.6 | 3.2 | 0.00 | 0.00 | 0.00 | 64 | 1014.5 |
| 20260906103707 | 25 | 115 | 0.0 | 1.6 | 0.00 | 0.00 | 0.00 | 64 | 1014.5 |
| 20260906103207 | 25 | 115 | 1.6 | 3.2 | 0.00 | 0.00 | 0.00 | 63 | 1014.6 |
| 20260906102707 | 25 | 115 | 0.0 | 3.2 | 0.00 | 0.00 | 0.00 | 63 | 1014.6 |
| 20260906102207 | 25 | 115 | 1.6 | 3.2 | 0.00 | 0.00 | 0.00 | 63 | 1014.4 |
| 20260906101707 | 25 | 115 | 1.6 | 3.2 | 0.00 | 0.00 | 0.00 | 62 | 1014.5 |
| 20260906101207 | 26 | 115 | 1.6 | 4.8 | 0.00 | 0.00 | 0.00 | 62 | 1014.6 |
| 20260906100707 | 26 | 115 | 3.2 | 4.8 | 0.00 | 0.00 | 0.00 | 62 | 1014.6 |
| 20260906095207 | 26 | 115 | 3.2 | 4.8 | 0.00 | 0.00 | 0.00 | 61 | 1014.7 |
| 20260906094707 | 26 | 115 | 3.2 | 4.8 | 0.00 | 0.00 | 0.00 | 61 | 1014.7 |
| 20260906094207 | 26 | 115 | 3.2 | 4.8 | 0.00 | 0.00 | 0.00 | 61 | 1014.7 |
| 20260906093708 | 26 | 115 | 3.2 | 4.8 | 0.00 | 0.00 | 0.00 | 61 | 1014.6 |
| 20260906093207 | 26 | 114 | 3.2 | 4.8 | 0.00 | 0.00 | 0.00 | 61 | 1014.6 |
| 20260906092707 | 26 | 114 | 1.6 | 3.2 | 0.00 | 0.00 | 0.00 | 61 | 1014.6 |
| 20260906091707 | 26 | 114 | 3.2 | 4.8 | 0.00 | 0.00 | 0.00 | 60 | 1014.5 |
| 20260906091207 | 26 | 114 | 3.2 | 4.8 | 0.00 | 0.00 | 0.00 | 60 | 1014.6 |
| 20260906090208 | 26 | 114 | 3.2 | 4.8 | 0.00 | 0.00 | 0.00 | 60 | 1014.4 |
| 20260906085708 | 26 | 113 | 1.6 | 3.2 | 0.00 | 0.00 | 0.00 | 60 | 1014.4 |
| 20260906085216 | 26 | 114 | 1.6 | 3.2 | 0.00 | 0.00 | 0.00 | 60 | 1014.4 |
| 20260906084707 | 26 | 114 | 1.6 | 3.2 | 0.00 | 0.00 | 0.00 | 60 | 1014.3 |
| 20260906084207 | 26 | 114 | 3.2 | 4.8 | 0.00 | 0.00 | 0.00 | 60 | 1014.3 |
| 20260906083708 | 26 | 114 | 3.2 | 4.8 | 0.00 | 0.00 | 0.00 | 60 | 1014.3 |
| 20260906083207 | 26 | 114 | 3.2 | 4.8 | 0.00 | 0.00 | 0.00 | 60 | 1014.2 |
| 20260906082207 | 26 | 113 | 1.6 | 4.8 | 0.00 | 0.00 | 0.00 | 59 | 1014.3 |
| 20260906081708 | 26 | 113 | 1.6 | 4.8 | 0.00 | 0.00 | 0.00 | 59 | 1014.4 |
| 20260906081208 | 26 | 112 | 3.2 | 4.8 | 0.00 | 0.00 | 0.00 | 59 | 1014.4 |
| 20260906080708 | 26 | 112 | 1.6 | 4.8 | 0.00 | 0.00 | 0.00 | 59 | 1014.4 |
| 20260906080207 | 26 | 111 | 3.2 | 4.8 | 0.00 | 0.00 | 0.00 | 59 | 1014.3 |
| 20260906075707 | 26 | 111 | 1.6 | 4.8 | 0.00 | 0.00 | 0.00 | 59 | 1014.3 |
| 20260906075207 | 27 | 111 | 1.6 | 4.8 | 0.00 | 0.00 | 0.00 | 58 | 1014.3 |
| 20260906074707 | 27 | 111 | 3.2 | 4.8 | 0.00 | 0.00 | 0.00 | 58 | 1014.5 |
| 20260906074208 | 27 | 109 | 1.6 | 4.8 | 0.00 | 0.00 | 0.00 | 58 | 1014.2 |
| 20260906073708 | 27 | 109 | 3.2 | 9.7 | 0.00 | 0.00 | 0.00 | 58 | 1014.2 |
| 20260906072708 | 27 | 108 | 3.2 | 12.9 | 0.00 | 0.00 | 0.00 | 58 | 1014.1 |
| 20260906071708 | 27 | 112 | 6.4 | 12.9 | 0.00 | 0.00 | 0.00 | 58 | 1014.1 |
| 20260906071208 | 27 | 109 | 3.2 | 9.7 | 0.00 | 0.00 | 0.00 | 57 | 1014.0 |
| 20260906070207 | 27 | 108 | 4.8 | 12.9 | 0.00 | 0.00 | 0.00 | 57 | 1014.1 |
| 20260906065207 | 27 | 109 | 4.8 | 12.9 | 0.00 | 0.00 | 0.00 | 55 | 1014.1 |
| 20260906064707 | 27 | 107 | 4.8 | 12.9 | 0.00 | 0.00 | 0.00 | 55 | 1014.3 |
| 20260906064208 | 27 | 113 | 4.8 | 9.7 | 0.00 | 0.00 | 0.00 | 55 | 1014.2 |
| 20260906063707 | 27 | 121 | 3.2 | 4.8 | 0.00 | 0.00 | 0.00 | 55 | 1014.2 |
| 20260906063207 | 27 | 121 | 3.2 | 4.8 | 0.00 | 0.00 | 0.00 | 55 | 1014.2 |
| 20260906061707 | 27 | 131 | 3.2 | 4.8 | 0.00 | 0.00 | 0.00 | 54 | 1014.2 |
| 20260906061207 | 27 | 134 | 1.6 | 9.7 | 0.00 | 0.00 | 0.00 | 54 | 1014.2 |
| 20260906060707 | 27 | 134 | 3.2 | 9.7 | 0.00 | 0.00 | 0.00 | 53 | 1014.1 |
| 20260906060208 | 28 | 139 | 3.2 | 4.8 | 0.00 | 0.00 | 0.00 | 53 | 1014.1 |
| 20260906055708 | 28 | 139 | 3.2 | 4.8 | 0.00 | 0.00 | 0.00 | 53 | 1014.0 |
| 20260906055207 | 28 | 140 | 1.6 | 9.7 | 0.00 | 0.00 | 0.00 | 52 | 1014.1 |
| 20260906054708 | 28 | 139 | 3.2 | 9.7 | 0.00 | 0.00 | 0.00 | 52 | 1014.1 |
| 20260906054208 | 28 | 138 | 3.2 | 9.7 | 0.00 | 0.00 | 0.00 | 52 | 1014.2 |
| 20260906053707 | 28 | 148 | 1.6 | 4.8 | 0.00 | 0.00 | 0.00 | 51 | 1014.3 |
| 20260906053207 | 28 | 148 | 3.2 | 4.8 | 0.00 | 0.00 | 0.00 | 51 | 1014.3 |
| 20260906052208 | 28 | 149 | 3.2 | 4.8 | 0.00 | 0.00 | 0.00 | 50 | 1014.3 |
| 20260906050207 | 29 | 149 | 4.8 | 9.7 | 0.00 | 0.00 | 0.00 | 49 | 1014.2 |
| 20260906045707 | 29 | 154 | 4.8 | 12.9 | 0.00 | 0.00 | 0.00 | 49 | 1014.1 |
| 20260906045207 | 29 | 153 | 4.8 | 12.9 | 0.00 | 0.00 | 0.00 | 49 | 1014.1 |
| 20260906044707 | 29 | 154 | 6.4 | 11.3 | 0.00 | 0.00 | 0.00 | 49 | 1014.1 |
| 20260906044208 | 29 | 150 | 6.4 | 16.1 | 0.00 | 0.00 | 0.00 | 48 | 1014.0 |
| 20260906043707 | 29 | 152 | 6.4 | 16.1 | 0.00 | 0.00 | 0.00 | 48 | 1014.0 |
| 20260906043207 | 30 | 160 | 8.0 | 12.9 | 0.00 | 0.00 | 0.00 | 48 | 1013.9 |
| 20260906042707 | 30 | 150 | 8.0 | 12.9 | 0.00 | 0.00 | 0.00 | 48 | 1013.9 |
| 20260906042208 | 30 | 150 | 4.8 | 12.9 | 0.00 | 0.00 | 0.00 | 47 | 1013.9 |
| 20260906041707 | 30 | 151 | 6.4 | 12.9 | 0.00 | 0.00 | 0.00 | 47 | 1014.0 |
| 20260906040707 | 30 | 156 | 4.8 | 11.3 | 0.00 | 0.00 | 0.00 | 47 | 1014.2 |
| 20260906040208 | 30 | 157 | 4.8 | 11.3 | 0.00 | 0.00 | 0.00 | 47 | 1014.0 |
| 20260906034707 | 30 | 153 | 6.4 | 12.9 | 0.00 | 0.00 | 0.00 | 47 | 1014.1 |
| 20260906034207 | 30 | 152 | 6.4 | 11.3 | 0.00 | 0.00 | 0.00 | 47 | 1014.0 |
| 20260906033707 | 30 | 157 | 6.4 | 11.3 | 0.00 | 0.00 | 0.00 | 47 | 1014.0 |
| 20260906033207 | 30 | 153 | 4.8 | 11.3 | 0.00 | 0.00 | 0.00 | 47 | 1014.0 |
| 20260906032707 | 30 | 147 | 6.4 | 11.3 | 0.00 | 0.00 | 0.00 | 47 | 1014.0 |
| 20260906032207 | 30 | 135 | 3.2 | 11.3 | 0.00 | 0.00 | 0.00 | 47 | 1013.9 |
| 20260906031207 | 30 | 148 | 8.0 | 11.3 | 0.00 | 0.00 | 0.00 | 46 | 1013.8 |
| 20260906030707 | 31 | 151 | 8.0 | 11.3 | 0.00 | 0.00 | 0.00 | 45 | 1013.8 |
| 20260906030207 | 31 | 150 | 6.4 | 11.3 | 0.00 | 0.00 | 0.00 | 45 | 1013.9 |
| 20260906025707 | 31 | 150 | 6.4 | 11.3 | 0.00 | 0.00 | 0.00 | 45 | 1013.8 |
| 20260906025208 | 31 | 154 | 4.8 | 9.7 | 0.00 | 0.00 | 0.00 | 45 | 1013.9 |
| 20260906024707 | 31 | 150 | 4.8 | 11.3 | 0.00 | 0.00 | 0.00 | 45 | 1013.8 |
| 20260906024207 | 31 | 149 | 4.8 | 12.9 | 0.00 | 0.00 | 0.00 | 44 | 1013.8 |
| 20260906023707 | 31 | 148 | 6.4 | 12.9 | 0.00 | 0.00 | 0.00 | 44 | 1013.6 |
| 20260906023212 | 31 | 156 | 4.8 | 12.9 | 0.00 | 0.00 | 0.00 | 44 | 1013.4 |
| 20260906022707 | 31 | 149 | 8.0 | 12.9 | 0.00 | 0.00 | 0.00 | 44 | 1013.3 |
| 20260906022208 | 31 | 159 | 8.0 | 12.9 | 0.00 | 0.00 | 0.00 | 44 | 1013.3 |
| 20260906021707 | 31 | 156 | 8.0 | 11.3 | 0.00 | 0.00 | 0.00 | 44 | 1013.2 |
| 20260906020707 | 31 | 152 | 4.8 | 11.3 | 0.00 | 0.00 | 0.00 | 45 | 1013.1 |
| 20260906020207 | 31 | 152 | 6.4 | 11.3 | 0.00 | 0.00 | 0.00 | 45 | 1013.0 |
| 20260906015707 | 31 | 142 | 4.8 | 9.7 | 0.00 | 0.00 | 0.00 | 44 | 1013.1 |
| 20260906014707 | 32 | 136 | 3.2 | 4.8 | 0.00 | 0.00 | 0.00 | 43 | 1013.1 |
| 20260906014207 | 32 | 134 | 1.6 | 4.8 | 0.00 | 0.00 | 0.00 | 43 | 1013.2 |
| 20260906013707 | 32 | 134 | 1.6 | 9.7 | 0.00 | 0.00 | 0.00 | 42 | 1013.1 |
| 20260906013207 | 32 | 136 | 3.2 | 9.7 | 0.00 | 0.00 | 0.00 | 42 | 1013.0 |
| 20260906012707 | 32 | 139 | 3.2 | 4.8 | 0.00 | 0.00 | 0.00 | 42 | 1012.8 |
| 20260906011707 | 32 | 142 | 1.6 | 4.8 | 0.00 | 0.00 | 0.00 | 42 | 1012.6 |
| 20260906011207 | 32 | 145 | 1.6 | 4.8 | 0.00 | 0.00 | 0.00 | 42 | 1012.5 |
| 20260906010707 | 32 | 146 | 1.6 | 9.7 | 0.00 | 0.00 | 0.00 | 42 | 1012.6 |
| 20260906010207 | 32 | 149 | 4.8 | 9.7 | 0.00 | 0.00 | 0.00 | 41 | 1012.5 |
| 20260906005707 | 33 | 147 | 3.2 | 9.7 | 0.00 | 0.00 | 0.00 | 41 | 1012.5 |
| 20260906005207 | 33 | 146 | 4.8 | 9.7 | 0.00 | 0.00 | 0.00 | 40 | 1012.5 |
| 20260906004707 | 33 | 147 | 4.8 | 9.7 | 0.00 | 0.00 | 0.00 | 40 | 1012.6 |
| 20260906004207 | 33 | 147 | 3.2 | 12.9 | 0.00 | 0.00 | 0.00 | 39 | 1012.5 |
| 20260906003707 | 33 | 151 | 6.4 | 16.1 | 0.00 | 0.00 | 0.00 | 39 | 1012.5 |
| 20260906003207 | 33 | 150 | 8.0 | 16.1 | 0.00 | 0.00 | 0.00 | 39 | 1012.4 |
| 20260906002707 | 34 | 151 | 8.0 | 19.3 | 0.00 | 0.00 | 0.00 | 38 | 1012.4 |
| 20260906001207 | 35 | 142 | 8.0 | 12.9 | 0.00 | 0.00 | 0.00 | 37 | 1012.5 |
| 20260906000707 | 35 | 142 | 8.0 | 16.1 | 0.00 | 0.00 | 0.00 | 35 | 1012.5 |
| 20260905235707 | 35 | 148 | 9.7 | 16.1 | 0.00 | 0.00 | 0.00 | 34 | 1012.7 |
| 20260905235207 | 35 | 150 | 6.4 | 16.1 | 0.00 | 0.00 | 0.00 | 34 | 1012.7 |
| 20260905234207 | 35 | 154 | 9.7 | 22.5 | 0.00 | 0.00 | 0.00 | 34 | 1012.6 |
| 20260905233708 | 35 | 149 | 9.7 | 22.5 | 0.00 | 0.00 | 0.00 | 33 | 1012.5 |
| 20260905233207 | 36 | 150 | 9.7 | 19.3 | 0.00 | 0.00 | 0.00 | 33 | 1012.5 |
| 20260905232707 | 36 | 165 | 8.0 | 22.5 | 0.00 | 0.00 | 0.00 | 32 | 1012.5 |
| 20260905231707 | 36 | 132 | 8.0 | 19.3 | 0.00 | 0.00 | 0.00 | 32 | 1012.6 |
| 20260905231207 | 36 | 157 | 4.8 | 19.3 | 0.00 | 0.00 | 0.00 | 32 | 1012.7 |
| 20260905230206 | 36 | 122 | 8.0 | 24.1 | 0.00 | 0.00 | 0.00 | 30 | 1012.7 |
| 20260905225707 | 36 | 159 | 4.8 | 24.1 | 0.00 | 0.00 | 0.00 | 31 | 1012.5 |
| 20260905225207 | 36 | 149 | 9.7 | 24.1 | 0.00 | 0.00 | 0.00 | 30 | 1012.6 |
| 20260905224707 | 36 | 152 | 12.9 | 24.1 | 0.00 | 0.00 | 0.00 | 30 | 1012.5 |
| 20260905223707 | 37 | 159 | 8.0 | 24.1 | 0.00 | 0.00 | 0.00 | 32 | 1012.6 |
| 20260905223207 | 37 | 150 | 12.9 | 24.1 | 0.00 | 0.00 | 0.00 | 32 | 1012.6 |
| 20260905222706 | 37 | 147 | 11.3 | 24.1 | 0.00 | 0.00 | 0.00 | 32 | 1012.5 |
| 20260905222207 | 37 | 152 | 9.7 | 25.7 | 0.00 | 0.00 | 0.00 | 32 | 1012.5 |
| 20260905221708 | 37 | 146 | 17.7 | 25.7 | 0.00 | 0.00 | 0.00 | 32 | 1012.5 |
| 20260905221207 | 37 | 155 | 9.7 | 22.5 | 0.00 | 0.00 | 0.00 | 32 | 1012.5 |
| 20260905220707 | 37 | 156 | 11.3 | 22.5 | 0.00 | 0.00 | 0.00 | 32 | 1012.5 |
| 20260905220207 | 37 | 154 | 9.7 | 19.3 | 0.00 | 0.00 | 0.00 | 33 | 1012.5 |
| 20260905215207 | 37 | 115 | 11.3 | 29.0 | 0.00 | 0.00 | 0.00 | 34 | 1012.4 |
| 20260905214707 | 36 | 150 | 11.3 | 25.7 | 0.00 | 0.00 | 0.00 | 34 | 1012.3 |
| 20260905213207 | 37 | 133 | 8.0 | 24.1 | 0.00 | 0.00 | 0.00 | 34 | 1012.5 |
| 20260905212707 | 37 | 120 | 11.3 | 25.7 | 0.00 | 0.00 | 0.00 | 34 | 1012.6 |
| 20260905211707 | 36 | 103 | 9.7 | 29.0 | 0.00 | 0.00 | 0.00 | 35 | 1012.6 |
| 20260905210707 | 37 | 110 | 12.9 | 24.1 | 0.00 | 0.00 | 0.00 | 34 | 1012.6 |
| 20260905210207 | 36 | 151 | 6.4 | 22.5 | 0.00 | 0.00 | 0.00 | 35 | 1012.7 |
| 20260905205707 | 37 | 145 | 12.9 | 25.7 | 0.00 | 0.00 | 0.00 | 35 | 1012.8 |
| 20260905204707 | 37 | 138 | 11.3 | 24.1 | 0.00 | 0.00 | 0.00 | 35 | 1012.9 |
| 20260905204207 | 37 | 139 | 8.0 | 25.7 | 0.00 | 0.00 | 0.00 | 36 | 1013.0 |
| 20260905203207 | 37 | 148 | 14.5 | 24.1 | 0.00 | 0.00 | 0.00 | 35 | 1013.1 |
| 20260905202713 | 37 | 142 | 14.5 | 25.7 | 0.00 | 0.00 | 0.00 | 36 | 1013.3 |
| 20260905202208 | 37 | 167 | 11.3 | 25.7 | 0.00 | 0.00 | 0.00 | 36 | 1013.4 |
| 20260905201707 | 37 | 150 | 8.0 | 24.1 | 0.00 | 0.00 | 0.00 | 36 | 1013.4 |
| 20260905200707 | 36 | 211 | 4.8 | 24.1 | 0.00 | 0.00 | 0.00 | 37 | 1013.6 |
| 20260905200207 | 36 | 156 | 11.3 | 24.1 | 0.00 | 0.00 | 0.00 | 37 | 1013.7 |
| 20260905195707 | 36 | 146 | 9.7 | 24.1 | 0.00 | 0.00 | 0.00 | 38 | 1013.7 |